This is the latest recevied weather packets stored in our database for station/object S50ME-11. If no packets are shown the sender has not sent any weather packets the latest 10 day(s).
| Time | Temp. | Humidity | Pressure | Rain* | Wind** | Luminosity | Snow |
|---|---|---|---|---|---|---|---|
| 1777362332 | 22.78° C | 39% | 1021.3 hPa | - | - | - | - |
| 1777361475 | 22.22° C | 39% | 1021.9 hPa | - | - | - | - |
| 1777361436 | 22.22° C | 39% | 1021.9 hPa | - | - | - | - |
| 1777361432 | 22.22° C | 39% | 1021.9 hPa | - | - | - | - |
| 1777360535 | 21.11° C | 39% | 1022.3 hPa | - | - | - | - |
| 1777360532 | 21.11° C | 39% | 1022.3 hPa | - | - | - | - |
| 1777359635 | 20.56° C | 40% | 1022.3 hPa | - | - | - | - |
| 1777359632 | 20.56° C | 40% | 1022.3 hPa | - | - | - | - |
| 1777358735 | 18.33° C | 41% | 1021.8 hPa | - | - | - | - |
| 1777358731 | 18.33° C | 41% | 1021.8 hPa | - | - | - | - |
| 1777357837 | 16.67° C | 41% | 1021.9 hPa | - | - | - | - |
| 1777357831 | 16.67° C | 41% | 1021.9 hPa | - | - | - | - |
| 1777356937 | 15.56° C | 42% | 1022 hPa | - | - | - | - |
| 1777356930 | 15.56° C | 42% | 1022 hPa | - | - | - | - |
| 1777356042 | 14.44° C | 42% | 1021.3 hPa | - | - | - | - |
| 1777356038 | 14.44° C | 42% | 1021.3 hPa | - | - | - | - |
| 1777355141 | 13.33° C | 42% | 1020.9 hPa | - | - | - | - |
| 1777355138 | 13.33° C | 42% | 1020.9 hPa | - | - | - | - |
| 1777354241 | 12.78° C | 42% | 1022.7 hPa | - | - | - | - |
| 1777354238 | 12.78° C | 42% | 1022.7 hPa | - | - | - | - |
| 1777353375 | 12.78° C | 42% | 1022.6 hPa | - | - | - | - |
| 1777353341 | 12.78° C | 42% | 1022.6 hPa | - | - | - | - |
| 1777353337 | 12.78° C | 42% | 1022.6 hPa | - | - | - | - |
| 1777352441 | 11.67° C | 43% | 1020.7 hPa | - | - | - | - |
| 1777352437 | 11.67° C | 43% | 1020.7 hPa | - | - | - | - |
* Rain since midnight (hover to see other rain measurements)
** Current wind speed in m/s (hover to see current wind gust speed)